Newport News, VA

11:41 PM EDT on August 26, 2016 (GMT -0400)
Felker Army Air Field

Weather History for KFAF - December, 2012

Change the Weather History Date:

Wednesday, December 5, 2012

  Actual Average Record
Temperature  
Mean Temperature 50 °F -  
Max Temperature 59 °F 54 °F 71 °F (2001)
Min Temperature 41 °F 38 °F 26 °F (2007)
Degree Days  
Heating Degree Days 15    
Moisture  
Dew Point 47 °F    
Average Humidity 86    
Maximum Humidity 100    
Minimum Humidity 62    
Precipitation  
Precipitation 0.04 in - - ()
Sea Level Pressure  
Sea Level Pressure 30.16 in    
Wind  
Wind Speed 3 mph (NNW)    
Max Wind Speed 7 mph    
Max Gust Speed -    
Visibility 9 miles    
Events Rain    
Averages and records for this station are not official NWS values.
T = Trace of Precipitation, MM = Missing Value Source: NWS Daily Summary

Daily Weather History Graph

Daily Weather History Graph

Search for Another Location

Airport or City:

Trip Planner

Search our weather history database for the weather conditions in past years. The results will help you decide how hot, cold, wet, or windy it might be!

Date:

Astronomy

Dec. 05, 2012 Rise Set
Actual Time 7:05 AM EST 4:49 PM EST
Civil Twilight 6:36 AM EST 5:17 PM EST
Nautical Twilight 6:04 AM EST 5:50 PM EST
Astronomical Twilight 5:32 AM EST 6:21 PM EST
Moon 11:29 PM EST (12/5) 11:34 AM EST (12/5)
Length of Visible Light 10h 41m
Length of Day
9h 43m
Waning Gibbous, 60% of the Moon is Illuminated
Dec 5
Waning Gibbous
Dec 6
Last Quarter
Dec 13
New
Dec 20
First Quarter
Dec 28
Full

Hourly Weather History & Observations

Time (EST) Temp. Windchill Dew Point Humidity Pressure Visibility Wind Dir Wind Speed Gust Speed Precip Events Conditions
12:55 AM 58.5 °F - 54.3 °F 86% 30.11 in 10.0 mi Variable 4.6 mph - N/A   Clear
1:55 AM 57.6 °F - 54.3 °F 89% 30.11 in 10.0 mi South 4.6 mph - N/A   Scattered Clouds
2:55 AM 57.9 °F - 54.5 °F 88% 30.09 in 10.0 mi South 3.5 mph - N/A   Scattered Clouds
3:55 AM 58.8 °F - 54.3 °F 85% 30.08 in 10.0 mi Variable 3.5 mph - N/A   Overcast
4:55 AM 57.9 °F - 53.8 °F 86% 30.07 in 10.0 mi Calm Calm - N/A   Mostly Cloudy
5:55 AM 56.8 °F - 53.6 °F 89% 30.07 in 10.0 mi Calm Calm - N/A   Mostly Cloudy
6:55 AM 57.0 °F - 54.0 °F 89% 30.08 in 10.0 mi SW 3.5 mph - N/A   Mostly Cloudy
7:55 AM 57.0 °F - 54.1 °F 90% 30.09 in 10.0 mi NE 4.6 mph - N/A   Mostly Cloudy
9:55 AM 59.0 °F - 55.8 °F 89% 30.15 in 10.0 mi NW 4.6 mph - 0.00 in   Mostly Cloudy
10:21 AM 59.0 °F - 51.8 °F 77% 30.16 in 10.0 mi NNW 6.9 mph - N/A   Light Drizzle
10:55 AM 56.3 °F - 45.0 °F 66% 30.17 in 10.0 mi NNW 6.9 mph - 0.01 in Rain Light Rain
11:55 AM 52.0 °F - 43.2 °F 72% 30.17 in 10.0 mi North 6.9 mph - 0.02 in Rain Light Rain
12:55 PM 52.7 °F - 44.2 °F 73% 30.14 in 10.0 mi Calm Calm - 0.01 in Rain Light Rain
1:55 PM 52.3 °F - 45.1 °F 76% 30.13 in 10.0 mi Calm Calm - 0.00 in   Overcast
2:55 PM 52.3 °F - 46.0 °F 79% 30.13 in 10.0 mi SW 3.5 mph - N/A   Mostly Cloudy
3:55 PM 52.7 °F - 47.7 °F 83% 30.14 in 10.0 mi Calm Calm - N/A   Overcast
4:55 PM 49.5 °F - 47.5 °F 93% 30.15 in 10.0 mi Calm Calm - N/A   Clear
5:55 PM 48.0 °F - 45.9 °F 92% 30.17 in 10.0 mi Calm Calm - N/A   Clear
6:53 PM 44.6 °F - 42.8 °F 93% 30.18 in 2.5 mi Calm Calm - N/A   Clear
6:55 PM 44.8 °F - 43.9 °F 97% 30.18 in 2.0 mi Calm Calm - N/A   Clear
7:02 PM 44.6 °F - 44.6 °F 100% 30.19 in 4.0 mi Calm Calm - N/A   Clear
7:55 PM 44.1 °F - 43.5 °F 98% 30.20 in 10.0 mi Calm Calm - N/A   Clear
8:55 PM 43.0 °F 40.3 °F 42.4 °F 98% 30.23 in 10.0 mi ENE 4.6 mph - N/A   Clear
9:09 PM 42.8 °F - 41.0 °F 93% 30.23 in 2.5 mi Calm Calm - N/A   Clear
9:18 PM 41.0 °F - 41.0 °F 100% 30.22 in 3.0 mi Calm Calm - N/A   Clear
9:55 PM 42.3 °F - 41.0 °F 95% 30.23 in 10.0 mi Calm Calm - N/A   Clear
10:55 PM 45.3 °F 44.0 °F 36.0 °F 70% 30.25 in 10.0 mi North 3.5 mph - N/A   Clear
11:55 PM 45.0 °F 42.6 °F 32.7 °F 62% 30.25 in 10.0 mi Variable 4.6 mph - N/A   Clear